Regional Weather Roundup
Issued by NWS

Home | Current Version | Previous Version | Graphics & Text | Print | Product List | Glossary Off
Versions: 1 2 3 4 5 6 7 8 9 10 11 12 13 14 15 16 17 18 19 20 21 22 23 24 25 26 27 28 29 30 31 32 33 34 35 36 37 38 39 40 41 42 43 44 45 46 47 48 49 50

000
ASUS43 KTOP 110459
RWRKS

WEATHER ROUNDUP FOR KANSAS
NATIONAL WEATHER SERVICE GOODLAND KS
1100 PM CST SUN DEC 10 2017

NOTE:  "FAIR" INDICATES FEW OR NO CLOUDS BELOW 12,000 FEET WITH NO
SIGNIFICANT WEATHER AND/OR OBSTRUCTIONS TO VISIBILITY.

KSZ001>006-013>018-027>032-041>047-110600-
NORTHWEST KANSAS

CITY           SKY/WX    TMP DP  RH WIND       PRES   REMARKS
GOODLAND       CLEAR     31   2  29 W10       30.27R WCI  22
HAYS           CLEAR     40  12  32 NW6       30.20S
HILL CITY      CLEAR     38  11  32 W12       30.21R WCI  30
RUSSELL        CLEAR     36  15  42 SW12      30.17F WCI  28
$$

KSZ061>065-074>080-084>089-110600-
SOUTHWEST KANSAS

CITY           SKY/WX    TMP DP  RH WIND       PRES   REMARKS
DODGE CITY     CLOUDY    43   8  23 W12       30.25F
GARDEN CITY    CLOUDY    31   6  35 NW12      30.27R WCI  22
GREAT BEND     CLEAR     34  12  40 SW8       30.21S
LIBERAL        CLEAR     31   8  38 W9        30.30F
$$

KSZ066>073-081>083-090>101-110600-
SOUTHEAST KANSAS

CITY           SKY/WX    TMP DP  RH WIND       PRES   REMARKS
CHANUTE        CLEAR     36  22  56 SW6       30.18S
COFFEYVILLE    CLEAR     32  24  72 S3        30.20S
HUTCHINSON     CLEAR     39  16  39 W3        30.20R
MEDICINE LODGE   N/A     40  16  37 N6        30.23S
NEWTON         CLEAR     43  15  32 W9        30.19S
PARSONS        CLEAR     29  22  75 CALM      30.20S
WICHITA INTL   CLEAR     44  18  35 W10       30.19S
WICHITA JABRA  CLEAR     46  18  32 W9        30.19S
WICHITA MCCONL CLEAR     48  15  27 SW5       30.19S
WINFIELD       CLEAR     36  21  54 CALM      30.21F
$$

KSZ007>012-019>026-033>040-048>060-102>105-110600-
NORTHEAST KANSAS

CITY           SKY/WX    TMP DP  RH WIND       PRES   REMARKS
CONCORDIA      CLEAR     44  15  31 W12       30.12F
EMPORIA        CLEAR     40  18  41 W7        30.15S
LAWRENCE       CLEAR     28  21  75 SW3       30.13F
MANHATTAN      CLEAR     36  17  46 CALM      30.13F
OLATHE IND     CLEAR     36  22  56 S3        30.14F
OLATHE EXE     CLEAR     38  23  55 CALM      30.13F
SALINA         CLEAR     41  18  39 SW7       30.16F
TOPEKA BILLARD CLEAR     32  25  75 CALM      30.13S
TOPEKA FORBES  CLEAR     35  20  54 CALM      30.12F
$$




USA.gov is the U.S. government's official web portal to all federal, state and local government web resources and services.